SL-16 DEB, 39907

Orbit data source: Space-Track

SL-16 DEB, 39907 is space debris in LEO originally from a launch on Fri, 26 Mar 1993 UTC launched from the Tyuratam Missile And Space Complex (TTMTR). Debris objects in space refer to the collection of defunct objects orbiting the Earth. Examples of debris include non-operational satellites, rocket bodies, and fragments generated from explosions, collisions, or faulty payload assembly.

Loading next visibility...
Identifier
39907, 1993-016CH
Orbit
LEO
Country
Flag of CISCIS
Related business
Manufacturer
Unknown
Mission
Spacecraft
Bus & Motor
Unknown
Mass
Unknown
Launch date (UTC)
1993-03-26 (33 years ago)
Launch vehicle
Unknown
Launch site
Tyuratam Missile And Space Complex (TTMTR)
Object type
Payload
Rocket body
Debris
Shape & HBR
Unknown shape, 0.1 m
Radar Cross Section
Small (<0.1 m²)

Expand to show TLE details & history
Last TLE update: 3 days ago

TLE from 3 days ago
0 SL-16 DEB
1 39907U 93016CH  26253.48179691  .00000213  00000-0  19624-3 0  9991
2 39907  70.9917 285.2730 0128179  40.2449 320.8063 13.89820967623614
Epoch: 2026-09-10T11:33Z
TLE epoch observation values (Epoch: 2026-09-10T11:33:47.253Z)
Latitude
0.00001°
Longitude
122.30724°
Altitude
859.514 km
Speed
7.46 km/s
True Right ascension
19h 01m 05s
True Declination
0° 00' 00"
Sunlit
Object was in daylight at epoch
Visualization orbit readout
Latitude
Unknown
Longitude
Unknown
Altitude
Unknown
Speed
Unknown
Apparent Right ascension
Unknown
Apparent Declination
Unknown
Sunlit
N/A
Visualization observer readout
Local Sidereal Time
16:04:21
Azimuth
Unknown
Elevation
Unknown
Doppler factor
Unknown
Orbital elements
Apogee altitude
1,020.847 km
Perigee altitude
833.569 km
Semi-major axis
7,305.345 km
Eccentricity
0.01282
Inclination
70.9917°
RAAN
285.273°
Arg. of periapsis
40.2449°
True anomaly
319.86646°
Mean anomaly
320.8063°
Eccentric anomaly
320.33755°
Mean motion
3.47602 °/min
Orbital period
103.57 mins
BSTAR
0.00019624
Loading maneuver chart data...
Computing Atmospheric mass density...
Loading historical data...
Loading historical data...
Loading historical data...
Loading historical data...
Loading historical data...
Loading historical data...
Loading historical data...

Documentation

Showing up to 5 results
|